Provo, UT

3:31 AM MST on December 13, 2019 (GMT -0700)
Provo Municipal

Weather History for KPVU - November, 2019

Change the Weather History Date:

Thursday, November 14, 2019

  Actual Average Record
Temperature  
Mean Temperature 40 °F -  
Max Temperature 52 °F 46 °F 70 °F (1990)
Min Temperature 28 °F 28 °F 19 °F (2018)
Degree Days  
Heating Degree Days 25    
Moisture  
Dew Point 30 °F    
Average Humidity 67    
Maximum Humidity 89    
Minimum Humidity 43    
Precipitation  
Precipitation 0.00 in - - ()
Sea Level Pressure  
Sea Level Pressure 30.21 in    
Wind  
Wind Speed 2 mph (West)    
Max Wind Speed 7 mph    
Max Gust Speed -    
Visibility 10 miles    
Events      
Averages and records for this station are not official NWS values.
T = Trace of Precipitation, MM = Missing Value Source: NWS Daily Summary

Daily Weather History Graph

Daily Weather History Graph

Search for Another Location

Airport or City:

Astronomy

Nov. 14, 2019 Rise Set
Actual Time 7:11 AM MST 5:10 PM MST
Civil Twilight 6:42 AM MST 5:39 PM MST
Nautical Twilight 6:09 AM MST 6:12 PM MST
Astronomical Twilight 5:37 AM MST 6:44 PM MST
Moon 6:59 PM MST (11/14) 9:10 AM MST (11/14)
Length of Visible Light 10h 57m
Length of Day
9h 59m
Waning Gibbous, 95% of the Moon is Illuminated
Nov 14
Waning Gibbous
Nov 19
Last Quarter
Nov 26
New
Dec 3
First Quarter
Dec 11
Full

Hourly Weather History & Observations

Time (MST) Temp. Windchill Dew Point Humidity Pressure Visibility Wind Dir Wind Speed Gust Speed Precip Events Conditions
12:56 AM 37.9 °F - 28.9 °F 70% 30.20 in 10.0 mi Calm Calm - N/A   Clear
1:56 AM 34.0 °F - 25.0 °F 70% 30.20 in 10.0 mi Calm Calm - N/A   Clear
2:56 AM 30.9 °F - 27.0 °F 85% 30.22 in 10.0 mi Calm Calm - N/A   Clear
3:56 AM 36.0 °F 31.1 °F 27.0 °F 70% 30.22 in 10.0 mi South 5.8 mph - N/A   Clear
4:56 AM 28.9 °F - 26.1 °F 89% 30.24 in 10.0 mi Calm Calm - N/A   Clear
5:56 AM 30.0 °F - 27.0 °F 88% 30.25 in 10.0 mi Calm Calm - N/A   Clear
6:56 AM 32.0 °F - 27.0 °F 82% 30.26 in 10.0 mi Calm Calm - N/A   Clear
7:56 AM 37.0 °F 32.4 °F 32.0 °F 82% 30.26 in 10.0 mi WSW 5.8 mph - N/A   Scattered Clouds
8:56 AM 41.0 °F 36.4 °F 28.0 °F 60% 30.29 in 10.0 mi SSE 6.9 mph - N/A   Scattered Clouds
9:56 AM 45.0 °F 42.6 °F 30.0 °F 56% 30.28 in 10.0 mi SW 4.6 mph - N/A   Clear
10:56 AM 46.0 °F 44.8 °F 30.9 °F 56% 30.27 in 10.0 mi Variable 3.5 mph - N/A   Scattered Clouds
11:56 AM 50.0 °F - 32.0 °F 50% 30.24 in 10.0 mi West 6.9 mph - N/A   Scattered Clouds
12:56 PM 51.1 °F - 32.0 °F 48% 30.20 in 10.0 mi West 4.6 mph - N/A   Clear
1:56 PM 48.9 °F - 33.1 °F 54% 30.19 in 10.0 mi West 4.6 mph - N/A   Mostly Cloudy
2:56 PM 52.0 °F - 30.0 °F 43% 30.18 in 10.0 mi NNW 4.6 mph - N/A   Mostly Cloudy
3:56 PM 48.9 °F - 30.9 °F 50% 30.17 in 10.0 mi NW 5.8 mph - N/A   Mostly Cloudy
4:56 PM 50.0 °F - 30.0 °F 46% 30.17 in 10.0 mi NNW 4.6 mph - N/A   Mostly Cloudy
5:56 PM 46.0 °F 42.5 °F 28.0 °F 50% 30.18 in 10.0 mi NE 6.9 mph - N/A   Mostly Cloudy
6:56 PM 43.0 °F 38.8 °F 35.1 °F 74% 30.19 in 10.0 mi SSW 6.9 mph - N/A   Mostly Cloudy
7:56 PM 41.0 °F - 32.0 °F 70% 30.19 in 10.0 mi Calm Calm - N/A   Scattered Clouds
8:56 PM 41.0 °F - 30.9 °F 67% 30.18 in 10.0 mi Calm Calm - N/A   Clear
9:56 PM 39.9 °F - 33.1 °F 77% 30.17 in 10.0 mi Calm Calm - N/A   Clear
10:56 PM 36.0 °F - 30.9 °F 82% 30.19 in 10.0 mi Calm Calm - N/A   Clear
11:56 PM 35.1 °F 31.0 °F 28.9 °F 78% 30.18 in 10.0 mi NNW 4.6 mph - N/A   Clear